[[{"header":{"parameterUnit":"m.s-1","parameterCategory":1,"la1":30.2991,"la2":30.254,"lo1":-89.0895,"lo2":-89.0444,"dy":0.0017,"dx":0.0017,"nx":28,"ny":28,"refTime":"2023-07-25T09:00:00:Z","depth":0,"parameterNumber":2,"parameterNumberName":"U-component_of_WINDS"},"data":[0,0,0,0,0,0,0,0,0,0,0,0,0,0,0,0,0,0,0,0,0,0,0,0,0,0,0,0,0,0,0,0,0,0,0,0,0,0,0,0,0,0,0,0,0,0,0,0,0,0,0,0,0,0,0,0,0,0,-0.8254,-0.8253,0,-0.8111,-0.8109,-0.8107,-0.8049,-0.8049,-0.805,-0.805,-0.7899,-0.7895,-0.789,0,0,0,0,0,0,0,0,0,0,0,0,0,-0.8475,-0.8472,-0.8254,-0.8253,-0.8251,-0.8111,-0.8109,-0.8107,-0.8049,-0.8049,-0.805,-0.805,-0.79,-0.7895,-0.789,0,0,0,0,0,0,0,0,0,0,0,0,0,-0.836,-0.847,-0.8255,-0.8205,-0.8199,-0.8111,-0.8109,-0.8106,-0.8049,-0.8049,-0.805,-0.805,-0.7902,-0.7896,-0.7889,-0.7838,0,0,-0.7869,-0.7866,0,0,0,0,0,0,0,0,-0.8367,-0.8352,-0.8214,-0.8208,-0.8202,-0.8098,-0.8131,-0.8016,-0.8049,-0.8106,-0.805,-0.8051,-0.7965,-0.7953,-0.7925,-0.7831,-0.7825,-0.7869,-0.7865,-0.7862,-0.786,0,0,0,0,0,0,0,-0.8375,-0.8358,-0.8197,-0.8212,-0.8205,-0.8189,-0.8173,-0.8109,-0.8034,-0.8101,-0.8096,-0.808,-0.7961,-0.7931,-0.7921,-0.7823,-0.7869,-0.7863,-0.7859,-0.7856,-0.768,-0.768,0,0,0,0,0,0,-0.8392,-0.8365,-0.8202,-0.8193,-0.8287,-0.8185,-0.8167,-0.8131,-0.8034,-0.802,-0.808,-0.8078,-0.7942,-0.7928,-0.7915,-0.7849,-0.7862,-0.7856,-0.7852,-0.7681,-0.768,-0.7679,0,0,0,0,0,0,-0.8397,-0.8378,-0.8208,-0.8278,-0.8255,-0.818,-0.814,-0.8128,-0.8098,-0.8019,-0.8005,-0.8063,-0.7942,-0.7924,-0.7858,-0.7843,-0.7853,-0.7847,-0.7682,-0.7681,-0.768,-0.7718,0,0,0,0,0,0,-0.8403,-0.838,-0.8361,-0.8278,-0.8252,-0.8154,-0.8139,-0.8125,-0.8087,-0.8083,-0.7999,-0.7986,-0.7941,-0.7868,-0.7852,-0.7834,-0.7842,-0.7683,-0.7681,-0.768,-0.7717,-0.7718,-0.7718,0,0,0,0,0,-0.8411,-0.8376,-0.836,-0.834,-0.8226,-0.8154,-0.8138,-0.8089,-0.8086,-0.8066,-0.8015,-0.7989,-0.7848,-0.7862,-0.7843,-0.7823,-0.7684,-0.7682,-0.768,-0.7717,-0.7718,-0.7718,0,0,0,0,0,0,-0.8457,-0.8364,-0.8345,-0.8282,-0.8227,-0.8144,-0.8117,-0.8091,-0.8033,-0.8032,-0.7971,-0.7953,-0.7892,-0.7851,-0.7868,-0.7769,-0.7764,-0.7758,-0.7798,-0.7798,-0.7799,-0.781,-0.7836,0,0,0,0,0,-0.846,-0.8411,-0.8331,-0.8284,-0.8257,-0.8192,-0.8158,-0.8125,-0.8064,-0.804,-0.7984,-0.7925,-0.7867,-0.783,-0.7773,-0.7711,-0.7692,-0.7688,-0.7689,-0.769,-0.7685,-0.765,-0.7647,-0.7674,-0.7674,-0.7674,0,0,-0.8466,-0.8409,-0.8381,-0.8291,-0.8244,-0.8193,-0.8172,-0.8119,-0.808,-0.8031,-0.7966,-0.7923,-0.7853,-0.7789,-0.7758,-0.7753,-0.7674,-0.7688,-0.7689,-0.7684,-0.7648,-0.7645,-0.7643,-0.7672,-0.7673,-0.7673,0,0,-0.8449,-0.8402,-0.8357,-0.831,-0.8239,-0.8197,-0.8186,-0.8107,-0.8077,-0.8011,-0.7974,-0.7926,-0.7828,-0.778,-0.7742,-0.7709,-0.7682,-0.7691,-0.7694,-0.766,-0.7658,-0.7655,-0.7643,-0.764,-0.7687,-0.7688,-0.7688,0,-0.8464,-0.8387,-0.8336,-0.8285,-0.8247,-0.8202,-0.8155,-0.8112,-0.8026,-0.8,-0.7996,-0.7873,-0.7822,-0.7746,-0.7738,-0.771,-0.7695,-0.77,-0.7662,-0.766,-0.7657,-0.7644,-0.764,-0.7689,-0.7689,-0.7689,-0.7689,0,-0.8409,-0.8356,-0.8328,-0.8247,-0.8206,-0.8157,-0.8098,-0.8062,-0.8032,-0.799,-0.7923,-0.7861,-0.779,-0.777,-0.7739,-0.7689,-0.7689,-0.7674,-0.7667,-0.7657,-0.7644,-0.7639,-0.7691,-0.7691,-0.769,-0.769,0,0,-0.8417,-0.831,-0.83,-0.8263,-0.8183,-0.814,-0.8089,-0.8021,-0.7991,-0.7933,-0.7889,-0.7807,-0.7794,-0.7752,-0.7716,-0.7686,-0.7663,-0.7675,-0.7672,-0.7675,-0.7604,-0.7615,-0.761,-0.7645,-0.7644,-0.7643,-0.761,0,-0.8389,-0.8298,-0.8251,-0.8179,-0.8129,-0.8086,-0.8042,-0.7987,-0.7946,-0.7896,-0.785,-0.7794,-0.778,-0.7754,-0.7723,-0.7673,-0.7648,-0.7674,-0.7602,-0.76,-0.7621,-0.7604,-0.7615,-0.7586,-0.7604,-0.7603,-0.7603,0,-0.8345,-0.8289,-0.8213,-0.8138,-0.8115,-0.8077,-0.8011,-0.7965,-0.7901,-0.7873,-0.7827,-0.7792,-0.7736,-0.7734,-0.7655,-0.7675,-0.7642,-0.7613,-0.7611,-0.7601,-0.7601,-0.7594,-0.7576,-0.7571,-0.7595,-0.7595,-0.7596,0,-0.8358,-0.8264,-0.8206,-0.8175,-0.8087,-0.8061,-0.8023,-0.796,-0.7922,-0.7865,-0.784,-0.7776,-0.7741,-0.7692,-0.764,-0.7643,-0.7567,-0.756,-0.7541,-0.7542,-0.7526,-0.7528,-0.7503,-0.7506,-0.7506,-0.7506,-0.7507,0,-0.8332,-0.8287,-0.8211,-0.8175,-0.8123,-0.8069,-0.8019,-0.7977,-0.7922,-0.7877,-0.7835,-0.7793,-0.7728,-0.7678,-0.7637,-0.7578,-0.7563,-0.7538,-0.7527,-0.7541,-0.7544,-0.7519,-0.7519,-0.7505,-0.7506,-0.7506,-0.7506,0,-0.8337,-0.8285,-0.8219,-0.8141,-0.8121,-0.8086,-0.8019,-0.7982,-0.7939,-0.7883,-0.7866,-0.7799,-0.7737,-0.7681,-0.76,-0.7572,-0.7512,-0.7499,-0.7534,-0.7528,-0.7513,-0.7515,-0.7469,-0.7461,-0.7471,-0.7471,-0.7471,0,-0.8324,-0.8289,-0.8208,-0.8175,-0.8138,-0.8086,-0.8048,-0.7994,-0.7956,-0.7881,-0.7853,-0.779,-0.7736,-0.764,-0.7583,-0.752,-0.7505,-0.7493,-0.7495,-0.751,-0.7504,-0.7507,-0.7503,-0.7494,-0.7494,-0.7494,-0.7494,0,-0.8306,-0.8282,-0.8229,-0.8168,-0.8124,-0.8073,-0.802,-0.7995,-0.7931,-0.789,-0.7828,-0.7786,-0.7704,-0.764,-0.7572,-0.7531,-0.7501,-0.7494,-0.7487,-0.75,-0.7522,-0.751,-0.7536,-0.7495,-0.7495,-0.7495,-0.7495,-0.7495,-0.8301,-0.8268,-0.8206,-0.8149,-0.8104,-0.8056,-0.8018,-0.7971,-0.7918,-0.7848,-0.7819,-0.7756,-0.7693,-0.7598,-0.7557,-0.7506,-0.75,-0.7489,-0.7486,-0.7484,-0.7487,-0.7531,-0.7493,-0.7493,-0.7493,-0.7493,-0.7493,0,-0.8281,-0.8239,-0.8187,-0.8116,-0.8071,-0.8049,-0.7989,-0.7953,-0.7898,-0.7843,-0.7791,-0.772,-0.7659,-0.7597,-0.7533,-0.7504,-0.7489,-0.7488,-0.749,-0.7481,-0.7496,-0.7509,-0.7502,-0.7502,-0.7502,-0.7502,-0.7502,-0.7502,-0.8265,-0.8207,-0.8176,-0.8096,-0.8054,-0.7993,-0.7961,-0.7916,-0.7871,-0.7794,-0.7744,-0.7705,-0.7647,-0.7578,-0.752,-0.7504,-0.7482,-0.7485,-0.7465,-0.748,-0.748,-0.7479,-0.7492,-0.7481,-0.7481,-0.7454,-0.7454,-0.7454]},{"header":{"parameterUnit":"m.s-1","parameterCategory":1,"la1":30.2991,"la2":30.254,"lo1":-89.0895,"lo2":-89.0444,"dy":0.0017,"dx":0.0017,"nx":28,"ny":28,"refTime":"2023-07-25T09:00:00:Z","depth":0,"parameterNumber":3,"parameterNumberName":"V-component_of_WINDS"},"data":[0,0,0,0,0,0,0,0,0,0,0,0,0,0,0,0,0,0,0,0,0,0,0,0,0,0,0,0,0,0,0,0,0,0,0,0,0,0,0,0,0,0,0,0,0,0,0,0,0,0,0,0,0,0,0,0,0,0,1.0012,1.0013,0,1.0053,1.0054,1.0054,1.0092,1.0092,1.0093,1.0093,1.0131,1.0132,1.0132,0,0,0,0,0,0,0,0,0,0,0,0,0,0.9962,0.9962,1.0012,1.0013,1.0013,1.0053,1.0054,1.0054,1.0092,1.0092,1.0093,1.0093,1.0131,1.0132,1.0133,0,0,0,0,0,0,0,0,0,0,0,0,0,0.9991,0.9963,1.0012,1.0037,1.004,1.0053,1.0054,1.0054,1.0092,1.0092,1.0093,1.0094,1.0131,1.0132,1.0133,1.0124,0,0,1.0135,1.0136,0,0,0,0,0,0,0,0,0.9989,0.9993,1.0033,1.0035,1.0038,1.0068,1.005,1.0077,1.0091,1.0072,1.0093,1.0094,1.0109,1.0112,1.0118,1.0126,1.0127,1.0135,1.0136,1.0136,1.0137,0,0,0,0,0,0,0,0.9987,0.9991,1.0028,1.0033,1.0037,1.0044,1.0049,1.0055,1.0086,1.0073,1.0076,1.0081,1.0111,1.0117,1.0119,1.0128,1.0135,1.0136,1.0137,1.0137,1.0126,1.0125,0,0,0,0,0,0,0.9982,0.9989,1.0027,1.003,1.0015,1.0044,1.005,1.0058,1.0086,1.0091,1.008,1.0082,1.0115,1.0118,1.0121,1.011,1.0136,1.0137,1.0138,1.0127,1.0126,1.0125,0,0,0,0,0,0,0.9981,0.9985,1.0025,1.001,1.0016,1.0045,1.0053,1.0058,1.0064,1.0091,1.0096,1.0081,1.0116,1.012,1.0122,1.0112,1.0137,1.0138,1.0128,1.0127,1.0125,1.0089,0,0,0,0,0,0,0.9979,0.9984,0.9983,1.001,1.0017,1.0028,1.0052,1.0058,1.0066,1.007,1.0093,1.0098,1.0117,1.0121,1.0123,1.0113,1.0139,1.0129,1.0127,1.0126,1.0092,1.0087,1.0083,0,0,0,0,0,0.9977,0.9971,0.9983,0.9987,1.0016,1.0027,1.0031,1.0054,1.0065,1.0063,1.0079,1.0097,1.0113,1.0121,1.0124,1.0114,1.013,1.0128,1.0126,1.0093,1.0088,1.0083,0,0,0,0,0,0,0.9942,0.9975,0.9988,0.9991,1.0006,1.0033,1.0031,1.0048,1.0059,1.0061,1.0088,1.0093,1.0092,1.0103,1.0112,1.0105,1.0123,1.0122,1.0098,1.0093,1.0088,1.0085,1.014,0,0,0,0,0,0.9934,0.9942,0.9971,0.997,0.9977,1.0003,1.0009,1.0025,1.0041,1.0047,1.0064,1.0078,1.0085,1.009,1.0099,1.0093,1.0097,1.0088,1.0084,1.008,1.0078,1.0073,1.0068,1.0119,1.0119,1.0119,0,0,0.9919,0.9938,0.9942,0.9964,0.9977,0.9982,1.0008,1.0014,1.0017,1.0048,1.0051,1.0063,1.008,1.0078,1.0078,1.0087,1.0065,1.0078,1.0075,1.0075,1.0071,1.0066,1.0062,1.0118,1.0118,1.0118,0,0,0.9894,0.991,0.991,0.9923,0.9942,0.9959,0.9959,0.9983,0.9993,0.9997,1.0018,1.0022,1.0036,1.0046,1.0053,1.0027,1.0043,1.003,1.0007,1.0002,0.9998,0.9994,0.9982,0.9978,1.0028,1.0028,1.0028,0,0.9872,0.9883,0.9908,0.9911,0.9919,0.9947,0.9945,0.9956,0.9977,0.9981,0.9992,1.0007,1.002,1.0019,1.0013,1.0018,1.0017,1.0027,0.9997,0.9993,0.999,0.9979,0.9975,1.0026,1.0026,1.0026,1.0026,0,0.9853,0.986,0.9857,0.9877,0.9884,0.9886,0.9909,0.9913,0.9927,0.9942,0.9943,0.996,0.9971,0.9972,0.9987,0.9972,0.9977,0.9992,1.001,0.9983,0.9973,0.9969,1.0023,1.0024,1.0024,1.0025,0,0,0.9808,0.984,0.9838,0.9846,0.9869,0.9873,0.9874,0.9885,0.9887,0.99,0.9899,0.9909,0.9922,0.9929,0.9945,0.994,0.9915,0.9955,0.9956,0.9945,0.9896,0.9884,0.9879,0.9926,0.9926,0.9925,0.9894,0,0.9785,0.979,0.9811,0.9808,0.9813,0.9838,0.9838,0.985,0.9863,0.9867,0.9881,0.9886,0.9904,0.9908,0.9905,0.9919,0.9906,0.9922,0.9923,0.9923,0.9917,0.9874,0.9862,0.9832,0.9891,0.989,0.989,0,0.976,0.977,0.9768,0.9787,0.979,0.979,0.98,0.9805,0.9818,0.9827,0.9834,0.9851,0.9851,0.9869,0.9866,0.9877,0.9879,0.9885,0.9884,0.9884,0.9904,0.987,0.9823,0.9818,0.9884,0.9885,0.9885,0,0.9724,0.9738,0.9737,0.9743,0.9767,0.9765,0.9774,0.9789,0.9793,0.9801,0.9803,0.9812,0.9815,0.982,0.9838,0.985,0.9832,0.9853,0.9838,0.9837,0.9832,0.9832,0.9782,0.9836,0.9836,0.9836,0.9836,0,0.9695,0.9692,0.9721,0.9721,0.9716,0.974,0.9734,0.9746,0.9757,0.9758,0.978,0.9779,0.9803,0.9805,0.9819,0.9813,0.9815,0.982,0.9824,0.9818,0.9816,0.9818,0.982,0.9835,0.9835,0.9836,0.9836,0,0.9655,0.9675,0.9675,0.9696,0.9701,0.9697,0.9714,0.9713,0.9726,0.9726,0.9727,0.9748,0.975,0.9768,0.9775,0.9784,0.9772,0.978,0.9767,0.9769,0.9752,0.9753,0.97,0.9693,0.9754,0.9753,0.9753,0,0.9635,0.9633,0.9653,0.9655,0.9663,0.9666,0.967,0.9692,0.9694,0.9707,0.9704,0.9708,0.9712,0.9714,0.9729,0.9733,0.974,0.9721,0.9741,0.9733,0.9737,0.9736,0.9734,0.9717,0.9716,0.9715,0.9715,0,0.9596,0.9605,0.9611,0.9618,0.9622,0.9629,0.9637,0.9637,0.966,0.9662,0.9664,0.9668,0.9673,0.9676,0.9682,0.969,0.9705,0.9709,0.9705,0.9698,0.9689,0.9691,0.9754,0.971,0.971,0.971,0.9711,0.9711,0.9564,0.9562,0.9575,0.9579,0.9587,0.9593,0.9592,0.9605,0.9607,0.9614,0.9626,0.9626,0.9635,0.9645,0.9651,0.965,0.9659,0.9655,0.9653,0.9651,0.9646,0.9691,0.9651,0.9651,0.9652,0.9652,0.9652,0,0.9524,0.9533,0.9536,0.9546,0.9549,0.9563,0.9572,0.9572,0.9572,0.9581,0.9584,0.9585,0.9586,0.96,0.9603,0.9599,0.9605,0.9598,0.9598,0.9598,0.9639,0.9641,0.9593,0.9593,0.9593,0.9593,0.9593,0.9593,0.9504,0.95,0.9509,0.9508,0.9517,0.9517,0.952,0.9525,0.9531,0.9531,0.9533,0.9542,0.9551,0.9554,0.9555,0.9559,0.9557,0.9548,0.9553,0.9591,0.9596,0.9602,0.9603,0.9548,0.9548,0.9512,0.9512,0.9512]}]]